{"data":{"norad_id":58902,"epoch":"2026-05-25T02:41:05.730432Z","epoch_age_seconds":72208,"freshness":"FRESH","line1":"1 58902U 24022D   26145.11187188  .00362543  51108-4  11818-2 0  9990","line2":"2 58902  97.3874   8.2552 0005250 163.0940 197.0509 15.90640870129633","mean_motion":15.9064087,"eccentricity":0.000525,"inclination_deg":97.3874,"raan_deg":8.2552,"arg_perigee_deg":163.094,"mean_anomaly_deg":197.0509,"bstar":0.0011818,"rev_number":12963,"period_min":90.529548634067,"perigee_km":296.98209795898,"apogee_km":303.99465460408,"semimajor_km":6678.6253762815,"source":"CELESTRAK","updated_at":"2026-05-25T13:38:13.534572Z"}}